Frederick, MD

9:48 AM EDT on May 25, 2017 (GMT -0400)
Frederick Municipal

Weather History for KFDK - March, 2014

Change the Weather History Date:

Friday, March 7, 2014

  Actual Average (KHGR) Record (KHGR)
Temperature  
Mean Temperature 34 °F -  
Max Temperature 41 °F 44 °F 76 °F (2009)
Min Temperature 28 °F 27 °F 8 °F (2015)
Degree Days  
Heating Degree Days 30    
Moisture  
Dew Point 26 °F    
Average Humidity 82    
Maximum Humidity 100    
Minimum Humidity 65    
Precipitation  
Precipitation 0.00 in - - ()
Sea Level Pressure  
Sea Level Pressure 30.20 in    
Wind  
Wind Speed 6 mph (NNE)    
Max Wind Speed 13 mph    
Max Gust Speed 16 mph    
Visibility 10 miles    
Events      
Averages and records for this station are not official NWS values.
T = Trace of Precipitation, MM = Missing Value Source: NWS Daily Summary

Daily Weather History Graph

Daily Weather History Graph

Search for Another Location

Airport or City:

Trip Planner

Search our weather history database for the weather conditions in past years. The results will help you decide how hot, cold, wet, or windy it might be!

Date:

Astronomy

Mar. 07, 2014 Rise Set
Actual Time 6:33 AM EST 6:08 PM EST
Civil Twilight 6:06 AM EST 6:35 PM EST
Nautical Twilight 5:35 AM EST 7:06 PM EST
Astronomical Twilight 5:04 AM EST 7:37 PM EST
Moon 10:26 AM EST (3/7) 12:09 AM EST (3/7)
Length of Visible Light 12h 28m
Length of Day
11h 34m
Waxing Crescent, 42% of the Moon is Illuminated
Mar 7
Waxing Crescent
Mar 8
First Quarter
Mar 16
Full
Mar 23
Last Quarter
Mar 30
New

Hourly Weather History & Observations

Time (EST) Temp. Windchill Dew Point Humidity Pressure Visibility Wind Dir Wind Speed Gust Speed Precip Events Conditions
12:00 AM 30.2 °F 25.4 °F 21.2 °F 69% 30.41 in 10.0 mi NNE 4.6 mph - N/A   Overcast
12:20 AM 30.2 °F 24.3 °F 21.2 °F 69% 30.41 in 10.0 mi North 5.8 mph - N/A   Overcast
12:40 AM 30.2 °F 23.4 °F 21.2 °F 69% 30.39 in 10.0 mi NNE 6.9 mph - N/A   Overcast
1:00 AM 30.2 °F 24.3 °F 21.2 °F 69% 30.39 in 10.0 mi NNE 5.8 mph - N/A   Overcast
1:20 AM 30.2 °F 24.3 °F 21.2 °F 69% 30.40 in 10.0 mi NNE 5.8 mph - N/A   Overcast
1:40 AM 30.2 °F 23.4 °F 21.2 °F 69% 30.38 in 10.0 mi North 6.9 mph - N/A   Overcast
2:00 AM 30.2 °F 23.4 °F 21.2 °F 69% 30.38 in 10.0 mi NNE 6.9 mph - N/A   Overcast
2:20 AM 30.2 °F 21.9 °F 21.2 °F 69% 30.35 in 10.0 mi North 9.2 mph - N/A   Overcast
2:40 AM 30.2 °F 22.6 °F 23.0 °F 75% 30.34 in 10.0 mi NNE 8.1 mph - N/A   Overcast
3:00 AM 30.2 °F 23.4 °F 23.0 °F 75% 30.33 in 10.0 mi NNE 6.9 mph - N/A   Overcast
3:20 AM 28.4 °F 22.2 °F 23.0 °F 80% 30.34 in 10.0 mi NNE 5.8 mph - N/A   Overcast
3:40 AM 30.2 °F 22.6 °F 23.0 °F 75% 30.33 in 10.0 mi North 8.1 mph - N/A   Overcast
4:00 AM 30.2 °F 22.6 °F 23.0 °F 75% 30.32 in 10.0 mi North 8.1 mph - N/A   Overcast
4:20 AM 28.4 °F 19.7 °F 23.0 °F 80% 30.32 in 10.0 mi North 9.2 mph - N/A   Overcast
4:40 AM 28.4 °F 19.7 °F 23.0 °F 80% 30.31 in 10.0 mi NNE 9.2 mph - N/A   Overcast
5:00 AM 28.4 °F 19.7 °F 23.0 °F 80% 30.32 in 10.0 mi North 9.2 mph - N/A   Overcast
5:20 AM 28.4 °F 18.5 °F 23.0 °F 80% 30.31 in 10.0 mi North 11.5 mph 16.1 mph N/A   Overcast
5:35 AM 28.4 °F 19.7 °F 24.8 °F 86% 30.30 in 10.0 mi NNE 9.2 mph - N/A   Overcast
6:45 AM 28.4 °F 19.1 °F 24.8 °F 86% 30.30 in 10.0 mi NNE 10.4 mph - N/A   Overcast
7:45 AM 28.4 °F 19.1 °F 24.8 °F 86% 30.29 in 10.0 mi NNE 10.4 mph - N/A   Overcast
8:45 AM 28.4 °F 18.0 °F 24.8 °F 86% 30.24 in 10.0 mi NNE 12.7 mph - N/A   Overcast
9:45 AM 28.4 °F 19.1 °F 24.8 °F 86% 30.25 in 10.0 mi NNE 10.4 mph - N/A   Overcast
10:45 AM 32.0 °F 23.6 °F 26.6 °F 80% 30.23 in 10.0 mi North 10.4 mph - N/A   Overcast
11:59 AM 33.8 °F 25.8 °F 28.4 °F 81% 30.20 in 7.0 mi North 10.4 mph - N/A   Haze
12:45 PM 35.6 °F 28.6 °F 28.4 °F 75% 30.17 in 7.0 mi NNE 9.2 mph - N/A   Haze
1:45 PM 37.4 °F 31.4 °F 28.4 °F 70% 30.14 in 10.0 mi North 8.1 mph - N/A   Clear
2:50 PM 39.2 °F 33.6 °F 30.2 °F 70% 30.11 in 10.0 mi NNE 8.1 mph - N/A   Clear
3:50 PM 41.0 °F 35.8 °F 30.2 °F 65% 30.08 in 10.0 mi NE 8.1 mph - N/A   Clear
5:45 PM 39.2 °F 35.9 °F 30.2 °F 70% 30.04 in 10.0 mi NNE 4.6 mph - N/A   Clear
6:50 PM 37.4 °F 33.8 °F 30.2 °F 75% 30.03 in 10.0 mi Variable 4.6 mph - N/A   Clear
7:40 PM 33.8 °F - 32.0 °F 93% 30.03 in 10.0 mi Calm Calm - N/A   Clear
8:00 PM 33.8 °F - 30.2 °F 87% 30.03 in 10.0 mi Calm Calm - N/A   Clear
8:20 PM 32.0 °F - 30.2 °F 93% 30.03 in 10.0 mi Calm Calm - N/A   Clear
8:40 PM 32.0 °F - 30.2 °F 93% 30.03 in 10.0 mi Calm Calm - N/A   Clear
9:00 PM 30.2 °F - 30.2 °F 100% 30.03 in 10.0 mi Calm Calm - N/A   Clear
9:20 PM 30.2 °F - 30.2 °F 100% 30.02 in 10.0 mi Calm Calm - N/A   Clear
9:40 PM 32.0 °F 28.7 °F 30.2 °F 93% 30.02 in 10.0 mi NNE 3.5 mph - N/A   Clear
10:00 PM 30.2 °F 26.7 °F 28.4 °F 93% 30.02 in 10.0 mi NE 3.5 mph - N/A   Clear
10:20 PM 28.4 °F - 28.4 °F 100% 30.01 in 7.0 mi Calm Calm - N/A   Clear
10:40 PM 30.2 °F - 28.4 °F 93% 30.00 in 10.0 mi Calm Calm - N/A   Clear
11:00 PM 30.2 °F - 28.4 °F 93% 30.00 in 10.0 mi Calm Calm - N/A   Clear
11:20 PM 28.4 °F - 28.4 °F 100% 29.99 in 7.0 mi Calm Calm - N/A   Clear
11:40 PM 28.4 °F - 28.4 °F 100% 29.98 in 7.0 mi Calm Calm - N/A   Clear